METEOR 2-6 DEB, 45501

Orbit data source: Space-Track

METEOR 2-6 DEB, 45501 is space debris in LEO originally from a launch on Tue, 09 Sep 1980 UTC launched from the Plesetsk Missile And Space Complex (PKMTR). Debris objects in space refer to the collection of defunct objects orbiting the Earth. Examples of debris include non-operational satellites, rocket bodies, and fragments generated from explosions, collisions, or faulty payload assembly.

Loading next visibility...
Identifier
45501, 1980-073V
Orbit
LEO
Country
Flag of CISCIS
Related business
Manufacturer
Unknown
Mission
Spacecraft
Bus & Motor
Unknown
Mass
Unknown
Launch date (UTC)
1980-09-09 (45 years ago)
Launch vehicle
Unknown
Launch site
Plesetsk Missile And Space Complex (PKMTR)
Object type
Payload
Rocket body
Debris
Shape & HBR
Unknown shape, 0.1 m
Radar Cross Section
Small (<0.1 m²)

Expand to show TLE details & history
Last TLE update: 1 week ago

TLE from 1 week ago
0 METEOR 2-6 DEB
1 45501U 80073V   25292.71371036  .00008185  00000-0  29410-2 0  9991
2 45501  81.2108 278.4515 0029284 292.5560  67.2525 14.33515139535806
Epoch: 2025-10-19T17:07Z
TLE epoch observation values (Epoch: 2025-10-19T17:07:44.575Z)
Latitude
-0.00002°
Longitude
-6.91065°
Altitude
774.881 km
Speed
7.471 km/s
True Right ascension
18h 33m 48s
True Declination
0° 00' 00"
Sunlit
Object was in daylight at epoch
Visualization orbit readout
Latitude
Unknown
Longitude
Unknown
Altitude
Unknown
Speed
Unknown
Apparent Right ascension
Unknown
Apparent Declination
Unknown
Sunlit
N/A
Visualization observer readout
Local Sidereal Time
19:59:13
Azimuth
Unknown
Elevation
Unknown
Doppler factor
Unknown
Orbital elements
Apogee altitude
798.103 km
Perigee altitude
756.196 km
Semi-major axis
7,155.287 km
Eccentricity
0.00293
Inclination
81.2108°
RAAN
278.4515°
Arg. of periapsis
292.556°
True anomaly
67.56241°
Mean anomaly
67.2525°
Eccentric anomaly
67.40741°
Mean motion
3.58594 °/min
Orbital period
100.39 mins
BSTAR
0.002941
Loading maneuver chart data...
Computing Atmospheric mass density...
Loading historical data...
Loading historical data...
Loading historical data...
Loading historical data...
Loading historical data...
Loading historical data...
Loading historical data...

Documentation

Showing up to 5 results
|